Hourly Weather Lezhe

Today, 25 October, Sunday

Time Temperature Precipitation Wind Pressure Humidity
00:00 +15°C° 0.1 mm 1 mps 737 mmHg 70%
01:00 +15°C° 0.1 mm 1 mps 737 mmHg 72%
02:00 +15°C° 0.3 mm 1 mps 736 mmHg 72%
03:00 +15°C° 0.3 mm 1 mps 736 mmHg 72%
04:00 +15°C° 0.3 mm 1 mps 736 mmHg 72%
05:00 +15°C° 0.6 mm 1 mps 736 mmHg 75%
06:00 +14°C° 0.6 mm 1 mps 736 mmHg 77%
07:00 +14°C° 0.6 mm 1 mps 736 mmHg 80%
08:00 +16°C° 0.3 mm 1 mps 736 mmHg 77%
09:00 +18°C° 0.3 mm 1 mps 736 mmHg 74%
10:00 +19°C° 0.3 mm 1 mps 736 mmHg 71%
11:00 +19°C° 1.1 mm 1 mps 735 mmHg 71%
12:00 +18°C° 1.1 mm 2 mps 735 mmHg 72%
13:00 +19°C° 1.1 mm 2 mps 735 mmHg 72%
14:00 +18°C° 0.5 mm 2 mps 735 mmHg 76%
15:00 +17°C° 0.5 mm 2 mps 735 mmHg 79%
16:00 +18°C° 0.5 mm 1 mps 735 mmHg 83%
17:00 +16°C° 0.2 mm 1 mps 735 mmHg 85%
18:00 +15°C° 0.2 mm 1 mps 736 mmHg 88%
19:00 +14°C° 0.2 mm 1 mps 736 mmHg 90%
20:00 +14°C° 0.1 mm 1 mps 736 mmHg 90%
21:00 +14°C° 0.1 mm 2 mps 737 mmHg 90%
22:00 +13°C° 0.1 mm 2 mps 737 mmHg 90%
23:00 +13°C° 0.1 mm 2 mps 737 mmHg 89%

Tomorrow, 26 October, Monday

Time Temperature Precipitation Wind Pressure Humidity
00:00 +13°C° 0.1 mm 2 mps 737 mmHg 89%
01:00 +13°C° 0.1 mm 2 mps 737 mmHg 88%
02:00 +13°C° 0.1 mm 2 mps 737 mmHg 87%
03:00 +14°C° 0.1 mm 2 mps 737 mmHg 86%
04:00 +14°C° 0.1 mm 2 mps 737 mmHg 85%
05:00 +14°C° 0.1 mm 2 mps 737 mmHg 85%
06:00 +14°C° 0.1 mm 2 mps 737 mmHg 85%
07:00 +14°C° 0.1 mm 2 mps 737 mmHg 85%
08:00 +15°C° 0 mm 2 mps 737 mmHg 83%
09:00 +16°C° 0 mm 2 mps 737 mmHg 81%
10:00 +18°C° 0 mm 1 mps 737 mmHg 79%
11:00 +18°C° 0 mm 2 mps 737 mmHg 77%
12:00 +18°C° 0 mm 2 mps 737 mmHg 75%
13:00 +19°C° 0 mm 2 mps 737 mmHg 74%
14:00 +18°C° 0 mm 2 mps 736 mmHg 76%
15:00 +19°C° 0 mm 1 mps 736 mmHg 79%
16:00 +18°C° 0 mm 1 mps 736 mmHg 81%
17:00 +16°C° 0 mm 1 mps 736 mmHg 84%
18:00 +15°C° 0 mm 1 mps 736 mmHg 87%
19:00 +14°C° 0 mm 1 mps 736 mmHg 90%
20:00 +14°C° 0 mm 1 mps 736 mmHg 89%
21:00 +14°C° 0 mm 1 mps 737 mmHg 88%
22:00 +14°C° 0 mm 1 mps 737 mmHg 87%
23:00 +13°C° 0 mm 1 mps 736 mmHg 85%

Day after tomorrow, 27 October, Tuesday

Time Temperature Precipitation Wind Pressure Humidity
00:00 +13°C° 0 mm 1 mps 736 mmHg 84%
01:00 +13°C° 0 mm 1 mps 736 mmHg 83%
02:00 +13°C° 0 mm 1 mps 736 mmHg 82%
03:00 +13°C° 0 mm 1 mps 736 mmHg 81%
04:00 +12°C° 0 mm 1 mps 736 mmHg 81%
05:00 +13°C° 0 mm 1 mps 736 mmHg 80%
06:00 +13°C° 0 mm 1 mps 736 mmHg 78%
07:00 +13°C° 0 mm 1 mps 736 mmHg 77%
08:00 +15°C° 0 mm 1 mps 736 mmHg 72%
09:00 +18°C° 0 mm 1 mps 736 mmHg 66%
10:00 +20°C° 0 mm 1 mps 736 mmHg 61%
11:00 +20°C° 0 mm 1 mps 735 mmHg 61%
12:00 +20°C° 0 mm 1 mps 735 mmHg 60%
13:00 +21°C° 0 mm 1 mps 734 mmHg 60%
14:00 +20°C° 0 mm 1 mps 734 mmHg 65%
15:00 +19°C° 0 mm 1 mps 734 mmHg 70%
16:00 +16°C° 0 mm 0 mps 734 mmHg 75%
17:00 +18°C° 0 mm 1 mps 734 mmHg 78%
18:00 +16°C° 0 mm 1 mps 734 mmHg 81%
19:00 +15°C° 0 mm 1 mps 734 mmHg 85%
20:00 +15°C° 0 mm 1 mps 734 mmHg 84%
21:00 +14°C° 0 mm 1 mps 735 mmHg 84%
22:00 +14°C° 0 mm 1 mps 735 mmHg 84%
23:00 +14°C° 0 mm 1 mps 735 mmHg 83%

28 October, Wednesday

Time Temperature Precipitation Wind Pressure Humidity
00:00 +14°C° 0 mm 1 mps 734 mmHg 82%
01:00 +14°C° 0 mm 1 mps 734 mmHg 81%
02:00 +14°C° 0 mm 2 mps 734 mmHg 79%
03:00 +13°C° 0 mm 2 mps 734 mmHg 77%
04:00 +13°C° 0 mm 2 mps 734 mmHg 75%
05:00 +13°C° 0 mm 2 mps 734 mmHg 75%
06:00 +13°C° 0 mm 2 mps 734 mmHg 74%
07:00 +14°C° 0 mm 2 mps 735 mmHg 74%
08:00 +15°C° 0 mm 2 mps 735 mmHg 69%
09:00 +18°C° 0 mm 1 mps 735 mmHg 64%
10:00 +20°C° 0 mm 1 mps 735 mmHg 59%
11:00 +20°C° 0 mm 1 mps 735 mmHg 58%
12:00 +21°C° 0 mm 1 mps 735 mmHg 56%
13:00 +21°C° 0 mm 1 mps 735 mmHg 55%
14:00 +20°C° 0 mm 1 mps 735 mmHg 60%
15:00 +19°C° 0 mm 1 mps 735 mmHg 65%
16:00 +19°C° 0 mm 1 mps 735 mmHg 70%
17:00 +18°C° 0 mm 1 mps 735 mmHg 72%
18:00 +16°C° 0 mm 2 mps 736 mmHg 73%
19:00 +15°C° 0 mm 2 mps 736 mmHg 74%
20:00 +15°C° 0 mm 2 mps 736 mmHg 74%
21:00 +14°C° 0 mm 1 mps 737 mmHg 75%
22:00 +14°C° 0 mm 1 mps 737 mmHg 75%
23:00 +14°C° 0 mm 1 mps 737 mmHg 75%

29 October, Thursday

Time Temperature Precipitation Wind Pressure Humidity
00:00 +14°C° 0 mm 1 mps 737 mmHg 76%
01:00 +13°C° 0 mm 1 mps 737 mmHg 76%
02:00 +13°C° 0 mm 1 mps 737 mmHg 76%
03:00 +13°C° 0 mm 1 mps 737 mmHg 76%
04:00 +13°C° 0 mm 1 mps 737 mmHg 76%
05:00 +13°C° 0 mm 1 mps 738 mmHg 76%
06:00 +13°C° 0 mm 1 mps 738 mmHg 76%
07:00 +13°C° 0 mm 1 mps 738 mmHg 76%
08:00 +15°C° 0 mm 1 mps 738 mmHg 70%
09:00 +18°C° 0 mm 1 mps 739 mmHg 64%
10:00 +18°C° 0 mm 0 mps 739 mmHg 59%
11:00 +20°C° 0 mm 1 mps 739 mmHg 58%
12:00 +20°C° 0 mm 1 mps 739 mmHg 58%
13:00 +21°C° 0 mm 1 mps 739 mmHg 57%
14:00 +20°C° 0 mm 1 mps 739 mmHg 63%
15:00 +19°C° 0 mm 1 mps 739 mmHg 68%
16:00 +18°C° 0 mm 1 mps 739 mmHg 74%
17:00 +16°C° 0 mm 1 mps 740 mmHg 77%
18:00 +15°C° 0 mm 1 mps 740 mmHg 81%
19:00 +14°C° 0 mm 1 mps 741 mmHg 84%
20:00 +14°C° 0 mm 1 mps 741 mmHg 83%
21:00 +14°C° 0 mm 1 mps 741 mmHg 83%
22:00 +14°C° 0 mm 1 mps 742 mmHg 83%
23:00 +14°C° 0 mm 1 mps 742 mmHg 82%

30 October, Friday

Time Temperature Precipitation Wind Pressure Humidity
00:00 +13°C° 0 mm 1 mps 742 mmHg 82%
01:00 +13°C° 0 mm 1 mps 742 mmHg 82%
02:00 +13°C° 0 mm 1 mps 743 mmHg 82%
03:00 +13°C° 0 mm 1 mps 743 mmHg 81%
04:00 +13°C° 0 mm 1 mps 743 mmHg 81%
05:00 +13°C° 0 mm 1 mps 743 mmHg 80%
06:00 +13°C° 0 mm 2 mps 743 mmHg 79%
07:00 +13°C° 0 mm 2 mps 743 mmHg 78%
08:00 +15°C° 0 mm 2 mps 743 mmHg 72%
09:00 +18°C° 0 mm 1 mps 744 mmHg 66%
10:00 +20°C° 0 mm 1 mps 744 mmHg 60%
11:00 +20°C° 0 mm 1 mps 744 mmHg 57%
12:00 +20°C° 0 mm 2 mps 743 mmHg 55%
13:00 +21°C° 0 mm 2 mps 743 mmHg 52%
14:00 +20°C° 0 mm 2 mps 743 mmHg 58%
15:00 +19°C° 0 mm 2 mps 743 mmHg 64%
16:00 +18°C° 0 mm 2 mps 743 mmHg 69%
17:00 +17°C° 0 mm 2 mps 743 mmHg 71%
18:00 +16°C° 0 mm 2 mps 743 mmHg 72%
19:00 +15°C° 0 mm 2 mps 743 mmHg 74%
20:00 +15°C° 0 mm 2 mps 743 mmHg 73%
21:00 +14°C° 0 mm 2 mps 744 mmHg 72%
22:00 +14°C° 0 mm 2 mps 744 mmHg 71%
23:00 +14°C° 0 mm 2 mps 744 mmHg 71%
Show more